TimeCEST,TemperatureF,Dew PointF,Humidity,Sea Level PressureIn,VisibilityMPH,Wind Direction,Wind SpeedMPH,Gust SpeedMPH,PrecipitationIn,Events,Conditions,WindDirDegrees,DateUTC
12:55 AM,66.2,51.8,60,30.06,-9999.0,West,6.9,-,N/A,,Clear,280,2013-06-28 22:55:00
1:55 AM,66.2,51.8,60,30.01,-9999.0,WNW,9.2,-,N/A,,Clear,290,2013-06-28 23:55:00
2:00 AM,65,52,54,30.02,12,WNW,9.2,,,,Clear,290,2013-06-29 00:00:00
2:55 AM,64.4,57.2,77,30.01,-9999.0,West,6.9,-,N/A,,Clear,270,2013-06-29 00:55:00
3:55 AM,64.4,59.0,83,29.98,6.2,West,11.5,-,N/A,,Partly Cloudy,270,2013-06-29 01:55:00
4:55 AM,64.4,59.0,83,29.98,-9999.0,West,9.2,-,N/A,,Clear,270,2013-06-29 02:55:00
5:00 AM,64,58,75,30.00,12,West,9.2,,,,Clear,270,2013-06-29 03:00:00
5:55 AM,62.6,57.2,82,30.01,6.2,WNW,6.9,-,N/A,,Partly Cloudy,300,2013-06-29 03:55:00
6:55 AM,64.4,59.0,83,30.01,6.2,WNW,6.9,-,N/A,,Partly Cloudy,290,2013-06-29 04:55:00
7:55 AM,69.8,57.2,64,30.01,-9999.0,West,6.9,-,N/A,,Clear,280,2013-06-29 05:55:00
8:00 AM,69,56,55,30.01,12,West,6.9,,,,Clear,280,2013-06-29 06:00:00
8:55 AM,75.2,53.6,47,30.01,6.2,West,13.8,-,N/A,,Scattered Clouds,270,2013-06-29 06:55:00
9:55 AM,78.8,53.6,42,30.01,6.2,WNW,15.0,-,N/A,,Scattered Clouds,290,2013-06-29 07:55:00
10:55 AM,80.6,50.0,34,29.98,6.2,NW,18.4,-,N/A,,Scattered Clouds,310,2013-06-29 08:55:00
11:00 AM,81,51,24,30.00,9,NW,18.4,,,,Partly Cloudy,310,2013-06-29 09:00:00
11:55 AM,78.8,48.2,34,29.98,6.2,North,21.9,-,N/A,,Scattered Clouds,350,2013-06-29 09:55:00
12:55 PM,80.6,50.0,34,30.01,6.2,NNW,16.1,-,N/A,,Scattered Clouds,330,2013-06-29 10:55:00
1:55 PM,80.6,51.8,37,30.01,6.2,NW,16.1,-,N/A,,Scattered Clouds,310,2013-06-29 11:55:00
2:00 PM,81,51,25,30.01,9,NW,16.1,,,,Scattered Clouds,310,2013-06-29 12:00:00
2:55 PM,82.4,48.2,30,29.98,6.2,NW,17.3,-,N/A,,Scattered Clouds,310,2013-06-29 12:55:00
3:55 PM,82.4,48.2,30,29.98,6.2,NW,18.4,-,N/A,,Scattered Clouds,310,2013-06-29 13:55:00
4:55 PM,80.6,42.8,26,29.98,6.2,North,15.0,-,N/A,,Scattered Clouds,350,2013-06-29 14:55:00
5:00 PM,81,43,16,29.99,9,North,15.0,,,,Scattered Clouds,350,2013-06-29 15:00:00
5:55 PM,78.8,44.6,30,29.98,6.2,NNW,17.3,-,N/A,,Scattered Clouds,340,2013-06-29 15:55:00
6:55 PM,77.0,44.6,32,29.98,6.2,NNW,19.6,-,N/A,,Scattered Clouds,330,2013-06-29 16:55:00
7:55 PM,75.2,42.8,31,29.98,6.2,NNW,18.4,-,N/A,,Scattered Clouds,330,2013-06-29 17:55:00
8:00 PM,75,43,21,29.99,9,NNW,18.4,,,,Scattered Clouds,330,2013-06-29 18:00:00
8:55 PM,71.6,44.6,38,30.01,6.2,WNW,15.0,-,N/A,,Partly Cloudy,290,2013-06-29 18:55:00
9:55 PM,69.8,46.4,43,30.01,6.2,West,17.3,-,N/A,,Partly Cloudy,280,2013-06-29 19:55:00
10:55 PM,68.0,50.0,52,30.04,6.2,West,10.4,-,N/A,,Partly Cloudy,280,2013-06-29 20:55:00
11:00 PM,68,50,41,30.04,6,West,10.4,,,,Scattered Clouds,280,2013-06-29 21:00:00
11:55 PM,66.2,51.8,60,30.04,-9999.0,West,9.2,-,N/A,,Clear,260,2013-06-29 21:55:00